Zurück zum Katalog

STARLINK-2711

AktivKommunikationVLEO
NORAD 48673·PAYLOAD·🇺🇸 United States

Gestartet May 26, 2021 von Cape Canaveral Space Force Station

Loading…

Nächste Überflüge (nächste 24 Stunden)

TLE

AktuellSource: CelesTrak SupGP

Epoche: Sep 14, 2026, 12:56 UTC

1 48673C 21044AM  26257.53937500  .00024054  00000+0  77354-3 0  2573
2 48673  53.1579 316.5568 0001220  79.6013 338.0725 15.31688870    11

Verfolge STARLINK-2711 in Echtzeit mit AllMySat

Download on the App Store